Plattsburgh, NY

3:32 AM EST on November 24, 2017 (GMT -0500)
Plattsburgh International

Weather History for KPBG - April, 2014

Change the Weather History Date:

Tuesday, April 15, 2014

  Actual Average Record
Temperature  
Mean Temperature 45 °F 43 °F  
Max Temperature 64 °F 53 °F 81 °F (1968)
Min Temperature 26 °F 32 °F 19 °F (1992)
Degree Days  
Heating Degree Days 20 22  
Month to date heating degree days 340 386  
Since 1 July heating degree days 7531 7069  
Cooling Degree Days 0 0  
Month to date cooling degree days 0 0  
Year to date cooling degree days 0 0  
Moisture  
Dew Point 40 °F    
Average Humidity 89    
Maximum Humidity 100    
Minimum Humidity 78    
Precipitation  
Precipitation 0.48 in - 1.50 in (1972)
Month to date precipitation 1.62  
Year to date precipitation 3.61  
Sea Level Pressure  
Sea Level Pressure 29.67 in    
Wind  
Wind Speed 10 mph (West)    
Max Wind Speed 24 mph    
Max Gust Speed 32 mph    
Visibility 6 miles    
Events Rain , Snow    
T = Trace of Precipitation, MM = Missing Value Source: NWS Daily Summary

Daily Weather History Graph

Daily Weather History Graph

Search for Another Location

Airport or City:

Trip Planner

Search our weather history database for the weather conditions in past years. The results will help you decide how hot, cold, wet, or windy it might be!

Date:

Astronomy

Apr. 15, 2014 Rise Set
Actual Time 6:09 AM EDT 7:38 PM EDT
Civil Twilight 5:39 AM EDT 8:09 PM EDT
Nautical Twilight 5:02 AM EDT 8:46 PM EDT
Astronomical Twilight 4:23 AM EDT 9:25 PM EDT
Moon 8:18 PM EDT (4/15) 6:15 AM EDT (4/15)
Length of Visible Light 14h 30m
Length of Day
13h 29m
Full, 100% of the Moon is Illuminated
Apr 15
Full
Apr 22
Last Quarter
Apr 29
New
May 6
First Quarter
May 14
Full

Hourly Weather History & Observations

Time (EDT) Temp. Windchill Dew Point Humidity Pressure Visibility Wind Dir Wind Speed Gust Speed Precip Events Conditions
12:53 AM 57.0 °F - 55.0 °F 93% 29.66 in 10.0 mi South 5.8 mph - N/A   Overcast
1:53 AM 55.0 °F - 55.0 °F 100% 29.66 in 10.0 mi SE 3.5 mph - 0.00 in   Overcast
2:53 AM 54.0 °F - 53.1 °F 97% 29.64 in 10.0 mi Calm Calm - 0.00 in   Mostly Cloudy
3:53 AM 53.1 °F - 52.0 °F 96% 29.61 in 10.0 mi NE 3.5 mph - N/A   Overcast
4:53 AM 61.0 °F - 55.0 °F 81% 29.60 in 10.0 mi South 11.5 mph - 0.00 in Rain Light Rain
5:53 AM 59.0 °F - 54.0 °F 83% 29.57 in 10.0 mi South 13.8 mph - 0.00 in   Overcast
6:53 AM 57.9 °F - 54.0 °F 87% 29.56 in 10.0 mi South 17.3 mph 24.2 mph N/A   Scattered Clouds
7:53 AM 59.0 °F - 54.0 °F 83% 29.52 in 10.0 mi SSE 15.0 mph - N/A   Mostly Cloudy
8:53 AM 57.9 °F - 54.0 °F 87% 29.49 in 10.0 mi SE 10.4 mph - N/A   Mostly Cloudy
9:53 AM 63.0 °F - 55.9 °F 78% 29.45 in 10.0 mi SSE 21.9 mph 32.2 mph N/A   Clear
10:53 AM 61.0 °F - 55.9 °F 83% 29.43 in 10.0 mi SSE 15.0 mph - 0.00 in   Overcast
11:53 AM 62.1 °F - 57.9 °F 86% 29.42 in 10.0 mi South 10.4 mph - 0.01 in Rain Light Rain
12:53 PM 61.0 °F - 59.0 °F 93% 29.39 in 8.0 mi SE 8.1 mph - 0.04 in Rain Light Rain
1:01 PM 57.9 °F - 57.0 °F 97% 29.42 in 2.5 mi West 8.1 mph 23.0 mph 0.07 in Rain Heavy Rain
1:53 PM 48.9 °F - 45.0 °F 86% 29.47 in 7.0 mi West 9.2 mph 17.3 mph 0.17 in Rain Light Rain
2:53 PM 46.9 °F - 43.0 °F 86% 29.50 in 8.0 mi West 5.8 mph - 0.04 in Rain Rain
3:53 PM 45.0 °F 40.6 °F 39.9 °F 82% 29.55 in 10.0 mi West 8.1 mph 20.7 mph 0.03 in Rain Light Rain
4:11 PM 45.0 °F 41.8 °F 41.0 °F 86% 29.55 in 10.0 mi Variable 5.8 mph - 0.01 in Rain Light Rain
4:51 PM 42.8 °F 38.0 °F 37.4 °F 81% 29.60 in 6.0 mi West 8.1 mph 18.4 mph 0.03 in Rain Light Rain
4:53 PM 43.0 °F 38.2 °F 37.9 °F 82% 29.60 in 6.0 mi WNW 8.1 mph 18.4 mph 0.03 in Rain Light Rain
5:53 PM 39.0 °F 32.8 °F 35.1 °F 86% 29.66 in 8.0 mi West 9.2 mph - 0.05 in Rain Light Rain
6:26 PM 37.0 °F 31.6 °F 33.1 °F 86% 29.68 in 7.0 mi Variable 6.9 mph 19.6 mph 0.01 in Rain Light Rain
6:53 PM 35.1 °F 27.9 °F 32.0 °F 89% 29.73 in 4.0 mi West 9.2 mph - 0.03 in Snow Light Snow
7:03 PM 34.0 °F 29.8 °F 32.0 °F 92% 29.74 in 2.0 mi WNW 4.6 mph - 0.01 in Snow Light Snow
7:30 PM 33.1 °F 27.7 °F 30.9 °F 92% 29.75 in 2.5 mi WNW 5.8 mph - 0.03 in Snow Light Snow
7:49 PM 33.8 °F 27.7 °F 30.2 °F 87% 29.76 in 1.8 mi WNW 6.9 mph - 0.03 in Snow Light Snow
7:53 PM 33.1 °F 26.1 °F 30.9 °F 92% 29.78 in 2.0 mi WNW 8.1 mph - 0.04 in Snow Light Snow
8:12 PM 33.1 °F 26.1 °F 30.0 °F 89% 29.77 in 1.0 mi WNW 8.1 mph 17.3 mph 0.00 in Snow Light Snow
8:50 PM 32.0 °F 25.6 °F 30.2 °F 93% 29.82 in 2.5 mi NW 6.9 mph - 0.02 in Snow Light Snow
8:53 PM 32.0 °F 24.2 °F 30.9 °F 96% 29.83 in 3.0 mi NNW 9.2 mph - 0.02 in Snow Light Snow
9:10 PM 30.9 °F 21.2 °F 28.0 °F 89% 29.81 in 1.8 mi NW 12.7 mph - 0.00 in Snow Light Snow
9:32 PM 30.0 °F 22.4 °F 27.0 °F 88% 29.85 in 3.0 mi WNW 8.1 mph - 0.01 in Snow Light Snow
9:42 PM 30.0 °F 23.2 °F 27.0 °F 88% 29.87 in 5.0 mi NW 6.9 mph - 0.01 in Snow Light Snow
9:53 PM 30.0 °F 21.1 °F 26.1 °F 85% 29.86 in 5.0 mi NW 10.4 mph - 0.01 in Snow Light Snow
10:36 PM 28.0 °F 18.6 °F 24.1 °F 85% 29.89 in 1.8 mi NW 10.4 mph 24.2 mph 0.00 in Snow Light Snow
10:53 PM 27.0 °F 15.2 °F 24.1 °F 89% 29.91 in 1.2 mi NW 15.0 mph 19.6 mph 0.01 in Snow Light Snow
11:11 PM 27.0 °F 16.7 °F 21.9 °F 81% 29.90 in 3.0 mi WNW 11.5 mph 21.9 mph 0.00 in Snow Light Snow
11:36 PM 27.0 °F 18.7 °F 21.0 °F 78% 29.95 in 7.0 mi WNW 8.1 mph - 0.00 in Snow Light Snow
11:53 PM 27.0 °F 19.5 °F 21.9 °F 81% 29.95 in 10.0 mi WNW 6.9 mph - 0.00 in   Overcast